INTELSAT 17 (IS-17) (37238 NORAD) Tracking and Keplerian Element Data

This shows tracking and keplerian element data for the satellite.

Feedback or suggestion? Click here.




ElementValue
Catalog37238
NameINTELSAT 17 (IS-17)
Epoch Orbit2943
Epoch Day349.47086
Epoch Year2018
RAAN295.2113
Inclination0.0141
Eccentricity0.0002393
Argument of Perigee332.0987
Mean Anonmoly52.2756
Mean Motion1.00271262
Decay Rate1.1E-07
L11 37238U 10065B 18349.47086000 .00000011 00000-0 00000+0 0 9996
L22 37238 0.0141 295.2113 0002393 332.0987 52.2756 1.00271262 29439

Live tracking and technical data element details for INTELSAT 17 (IS-17) (NORAD 37238). INTELSAT 17 (IS-17) can be tracked NOW for your location showing map with azimuth and elevation plus other details from your city location.

Track the satellite on the map from your city or location and see movement details for azimuth, elevation, latitude, longitude, range, height, and movement on the map or in text.







IsCatalogInMostPopularTable: catalog: 37238, numindb: 60
Update: records affected: 1



GetName: 37238 INTELSAT 17 (IS-17)

Hit Count: updated at: Sun, 16 Dec 2018 11:20:33 GMT